This is the latest recevied weather packets stored in our database for station/object KA0EGE. If no packets are shown the sender has not sent any weather packets the latest 10 day(s).
| Time | Temp. | Humidity | Pressure | Rain* | Wind** | Luminosity | Snow |
|---|---|---|---|---|---|---|---|
| 1777862059 | 13.33° C | 88% | 1021.5 hPa | 0 mm | - | 0 W/m² | - |
| 1777861755 | 13.33° C | 87% | 1021.3 hPa | 0 mm | - | 0 W/m² | - |
| 1777861452 | 13.89° C | 87% | 1021.4 hPa | 0 mm | - | 0 W/m² | - |
| 1777861148 | 13.89° C | 86% | 1021.3 hPa | 0 mm | - | 0 W/m² | - |
| 1777860846 | 13.89° C | 86% | 1021.3 hPa | 0 mm | - | 0 W/m² | - |
| 1777860543 | 13.89° C | 85% | 1021.1 hPa | 0 mm | - | 0 W/m² | - |
| 1777860239 | 14.44° C | 84% | 1021 hPa | 0 mm | - | 0 W/m² | - |
| 1777859935 | 14.44° C | 83% | 1021 hPa | 0 mm | - | 0 W/m² | - |
| 1777859632 | 15° C | 81% | 1021 hPa | 0 mm | - | 0 W/m² | - |
| 1777859328 | 15° C | 80% | 1021 hPa | 0 mm | - | 0 W/m² | - |
| 1777859024 | 15° C | 79% | 1020.9 hPa | 0 mm | - | 0 W/m² | - |
| 1777858722 | 15.56° C | 78% | 1020.8 hPa | 0 mm | - | 0 W/m² | - |
| 1777858419 | 16.11° C | 77% | 1020.9 hPa | 0 mm | - | 0 W/m² | - |
| 1777858116 | 16.11° C | 73% | 1020.8 hPa | 0 mm | - | 0 W/m² | - |
| 1777857814 | 16.11° C | 73% | 1020.6 hPa | 0 mm | - | 0 W/m² | - |
| 1777857511 | 16.11° C | 73% | 1020.6 hPa | 0 mm | - | 0 W/m² | - |
| 1777857207 | 16.11° C | 73% | 1020.6 hPa | 0 mm | - | 0 W/m² | - |
| 1777856903 | 16.67° C | 72% | 1020.6 hPa | 0 mm | - | 0 W/m² | - |
| 1777856599 | 16.67° C | 71% | 1020.5 hPa | 0 mm | - | 0 W/m² | - |
| 1777856296 | 17.22° C | 70% | 1020.5 hPa | 0 mm | - | 0 W/m² | - |
| 1777855993 | 17.78° C | 68% | 1020.5 hPa | 0 mm | - | 0 W/m² | - |
| 1777855690 | 18.33° C | 66% | 1020.6 hPa | 0 mm | - | 0 W/m² | - |
| 1777855388 | 18.89° C | 63% | 1020.4 hPa | 0 mm | - | 0 W/m² | - |
| 1777855084 | 18.89° C | 60% | 1020.5 hPa | 0 mm | - | 0 W/m² | - |
| 1777854781 | 19.44° C | 63% | 1020.3 hPa | 0 mm | - | 1 W/m² | - |
* Rain latest hour (hover to see other rain measurements)
** Current wind speed in m/s (hover to see current wind gust speed)